Location: PSU-Greenbush Astrophysical Observatory
(37.5140°N, 94.9880°W)
Time: 13:28:43
(UTC-06:00)

Vanguard 2 Rocket - All Passes

Search period start: 27 January 2020 00:00
Search period end: 06 February 2020 00:00
Orbit: 554 x 3326 km, 32.9° (Epoch: 26 January)

Date Brightness Start Highest point End Pass type
(mag) Time Alt. Az. Time Alt. Az. Time Alt. Az.
27 Jan - 03:43:19 10° SSW 03:46:15 20° SSE 03:49:28 10° ESE visible
27 Jan - 05:54:17 10° WSW 05:58:27 51° S 06:04:36 10° E visible
27 Jan - 08:06:05 10° W 08:11:29 48° S 08:20:40 10° ESE daylight
27 Jan - 10:18:54 10° WSW 10:25:36 28° SSW 10:35:54 10° SSE daylight
27 Jan - 12:39:35 10° SW 12:40:54 10° SSW 12:42:16 10° SSW daylight
28 Jan - 02:45:27 10° S 02:47:11 12° SSE 02:48:53 10° SE night (unlit)
28 Jan - 04:55:32 10° WSW 04:59:18 41° SSE 05:04:08 10° E visible
28 Jan - 07:07:15 10° W 07:11:57 51° S 07:19:30 10° ESE daylight
28 Jan - 09:19:34 10° W 09:25:30 32° SSW 09:35:01 10° SE daylight
28 Jan - 11:35:20 10° SW 11:40:16 14° SSW 11:46:21 10° S daylight
29 Jan - 03:56:46 10° SW 04:00:14 30° SSE 04:04:04 10° E visible
29 Jan - 06:08:28 10° WSW 06:12:36 51° S 06:18:42 10° ESE visible
29 Jan - 08:20:30 10° W 08:25:42 37° SSW 08:34:04 10° SE daylight
29 Jan - 10:34:30 10° WSW 10:39:52 18° SSW 10:47:10 10° SSE daylight
30 Jan - 02:57:59 10° SSW 03:01:11 21° SSE 03:04:14 10° ESE night (unlit)
30 Jan - 05:09:36 10° WSW 05:13:25 47° S 05:18:20 10° ESE visible
30 Jan - 07:21:35 10° W 07:26:08 41° S 07:33:14 10° ESE daylight
30 Jan - 09:34:37 10° WSW 09:39:47 22° SSW 09:47:12 10° SSE daylight
31 Jan - 01:59:20 10° SSW 02:02:00 15° SSE 02:04:24 10° ESE night (unlit)
31 Jan - 04:10:38 10° WSW 04:14:20 40° S 04:18:24 10° E visible
31 Jan - 06:22:43 10° W 06:26:47 44° S 06:32:40 10° ESE visible
31 Jan - 08:35:14 10° WSW 08:39:56 25° SSW 08:46:55 10° SSE daylight
01 Feb - 01:01:12 10° S 01:02:41 11° SSE 01:04:03 10° SE night (unlit)
01 Feb - 03:11:29 10° SW 03:15:15 31° SSE 03:18:49 10° ESE night (unlit)
01 Feb - 05:23:47 10° WSW 05:27:35 46° S 05:32:27 10° ESE visible
01 Feb - 07:36:07 10° WSW 07:40:21 29° SSW 07:46:35 10° SE daylight
01 Feb - 09:51:08 10° SW 09:54:06 12° SSW 09:57:38 10° S daylight
02 Feb - 02:12:11 10° SW 02:16:08 25° SSE 02:19:26 10° ESE night (unlit)
02 Feb - 04:24:42 10° WSW 04:28:29 45° S 04:32:37 10° ESE visible
02 Feb - 06:37:06 10° WSW 06:40:59 33° SSW 06:46:22 10° SE visible
02 Feb - 08:50:44 10° SW 08:54:14 15° SSW 08:58:43 10° SSE daylight
03 Feb - 01:12:46 10° SSW 01:16:52 20° SSE 01:20:06 10° ESE night (unlit)
03 Feb - 03:25:22 10° WSW 03:29:24 41° S 03:33:08 10° ESE visible
03 Feb - 05:38:04 10° WSW 05:41:46 38° S 05:46:24 10° ESE visible
03 Feb - 07:51:05 10° WSW 07:54:36 19° SSW 07:59:14 10° SSE daylight
04 Feb - 00:13:23 10° SSW 00:17:26 16° SSE 00:20:37 10° ESE night (unlit)
04 Feb - 02:25:44 10° SW 02:30:17 35° S 02:33:56 10° ESE night (unlit)
04 Feb - 04:38:53 10° WSW 04:42:39 42° S 04:46:43 10° ESE visible
04 Feb - 06:51:45 10° WSW 06:55:11 22° SSW 06:59:37 10° SE visible
04 Feb - 23:14:17 10° S 23:17:46 13° SSE 23:20:40 10° SE night (unlit)
05 Feb - 01:25:51 10° SW 01:31:04 31° SSE 01:34:52 10° ESE night (unlit)
05 Feb - 03:39:27 10° WSW 03:43:34 45° S 03:47:21 10° ESE visible
05 Feb - 05:52:30 10° WSW 05:55:56 27° SSW 06:00:04 10° SE visible
05 Feb - 22:16:32 10° SSE 22:17:54 10° SSE 22:19:10 10° SSE visible
